Regional Weather Roundup
Issued by NWS San Angelo, TX

Home | Current Version | Previous Version | Text Only | Print | Product List | Glossary On
Versions: 1 2 3 4 5 6 7 8 9 10 11 12 13 14 15 16 17 18 19 20 21 22 23 24 25 26 27 28 29 30 31 32 33 34 35 36 37 38 39 40 41 42 43 44 45 46 47 48 49 50
000
ASUS44 KSJT 270611
RWRSJT
WEST CENTRAL TEXAS REGIONAL WEATHER ROUNDUP
NATIONAL WEATHER SERVICE SAN ANGELO TX
100 AM CDT FRI MAY 27 2016

NOTE: "FAIR" INDICATES FEW OR NO CLOUDS BELOW 12,000 FEET WITH NO
SIGNIFICANT WEATHER AND/OR OBSTRUCTIONS TO VISIBILITY.

TXZ049-054-064>066-071>073-076>078-098-099-113-114-127-128-139-140-
154-155-168>170-270700
...LOCATIONS ACROSS WEST CENTRAL TEXAS...

CITY           SKY/WX    TMP DP  RH WIND       PRES   REMARKS
SAN ANGELO     MOCLDY    68  66  93 NE7       29.68F
ABILENE        TSTM      65  62  90 VRB3      29.74F
DYESS AFB      LGT RAIN  64  59  82 N7        29.73F
JUNCTION       CLEAR     75  67  76 E8        29.72F
SWEETWATER     CLOUDY    69  64  83 S28G48    29.81R THUNDER
BROWNWOOD      CLOUDY    68  66  94 E8        29.74R
COLEMAN        CLOUDY    70  66  86 E6        29.74S
SONORA         MOCLDY    79  70  73 S17       29.73F
OZONA          FAIR      77  63  61 NW14G26   29.78R
BRADY          NOT AVBL
$$

TEXAS PANHANDLE/OKLAHOMA PANHANDLE

CITY           SKY/WX    TMP DP  RH WIND       PRES   REMARKS
AMARILLO       CLEAR     65  22  19 N17       29.79R
BORGER         CLEAR     62  43  49 N12       29.77F
CANADIAN       CLOUDY    67  52  59 NW15      29.72R
DALHART        CLEAR     56  39  53 NE10      29.82R
DUMAS          CLEAR     52  41  65 N7        29.80R
GUYMON         NOT AVBL
HEREFORD       CLEAR     49  27  43 W8        29.77S
PAMPA          CLEAR     60  45  56 N14       29.78S
PERRYTON       CLOUDY    60  45  57 N16G26    29.74F
$$

SOUTHERN PANHANDLE/SOUTH PLAINS/ROLLING PLAINS

CITY           SKY/WX    TMP DP  RH WIND       PRES   REMARKS
LUBBOCK        CLOUDY    72  42  34 SW6       29.78R
SNYDER           N/A     68  61  77 S15       29.75F
CHILDRESS      CLOUDY    70  65  84 S13       29.68F
SEMINOLE       PTCLDY    72  24  16 CALM      29.82R
$$

PERMIAN BASIN

CITY           SKY/WX    TMP DP  RH WIND       PRES   REMARKS
MIDLAND        CLEAR     73  56  54 SW6       29.77S
ODESSA         CLEAR     74  52  46 SW7       29.79R
WINK           PTCLDY    72  24  16 N7        29.77R
$$

FAR WEST/SOUTHWEST MOUNTAINS/TRANS PECOS

CITY           SKY/WX    TMP DP  RH WIND       PRES   REMARKS
ALPINE         PTCLDY    67  17  14 W5        29.96S
DRYDEN           N/A     73  62  68 NW7       29.73R
EL PASO        CLEAR     71  13  10 NW14      29.90R
FORT STOCKTON  PTCLDY    75  37  25 NW8       29.79R
GUADALUPE PASS NOT AVBL
MARFA          CLEAR     61  16  17 NW6       29.94R
PECOS          CLOUDY    68  21  17 SW9       29.77R
$$

DALLAS/FORT WORTH METROPLEX

CITY           SKY/WX    TMP DP  RH WIND       PRES   REMARKS
DFW AIRPORT    CLOUDY    68  64  87 S20       29.74F
FTW MEACHAM    CLOUDY    69  64  84 SE15      29.75R
DAL-EXECUTIVE  CLOUDY    66  64  93 SE6       29.76F
GRAND PRAIRIE  CLOUDY    66  66 100 S5        29.78F
ADDISON        CLOUDY    70  67  90 S12G17    29.76F
MESQUITE       CLOUDY    67  65  95 SW18G24   29.78F
LANCASTER      TSTM      65  63  93 S8        29.81F
$$

NORTH CENTRAL TEXAS

CITY           SKY/WX    TMP DP  RH WIND       PRES   REMARKS
SHRMAN/DENISON LGT RAIN  68  63  85 S5        29.77F
GAINESVILLE    CLOUDY    69  66  91 SE3       29.71F
BRIDGEPORT     CLOUDY    68  67  96 S13       29.74R
DENTON         CLOUDY    68  66  93 SE16      29.72R
WAXAHACHIE     LGT RAIN  65  65 100 SW3       29.81F
GRANBURY       CLOUDY    68  66  93 SE9       29.78R
$$

WESTERN NORTH TEXAS

CITY           SKY/WX    TMP DP  RH WIND       PRES   REMARKS
WICHITA FALLS  CLOUDY    67  64  90 E9        29.68F
VERNON           N/A    N/A N/A N/A MISG        N/A
BRECKENRIDGE   CLOUDY    68  61  78 SE12      29.70R THUNDER
COMANCHE       CLOUDY    65  65 100 E10G16    29.75R
$$

CENTRAL AND SOUTH CENTRAL TEXAS

CITY           SKY/WX    TMP DP  RH WIND       PRES   REMARKS
AUSTIN/BERGSTM TSTM      70  70 100 NE15      29.84R VSB 1/2
WACO           LGT RAIN  68  65  90 N10       29.85R
HILLSBORO      TSTM      68  67  97 S18G28    29.86R
TEMPLE         LGT RAIN  72  68  88 SE25      29.78R
KILLEEN-GRAY   CLOUDY    70  69  95 SE23G35   29.71F
FORT HOOD      LGT RAIN  70  69  96 SE24G31   29.67F
GEORGETOWN     CLOUDY    68  63  83 SE9       29.79S THUNDER
LAGO VISTA     TSTM      67  65  92 SE3       29.82F
SAN MARCOS     CLOUDY    70  68  94 E16G25    29.84R THUNDER VSB 1
NEW BRAUNFELS  CLOUDY    79  73  82 SE12      29.78R
RANDOLPH AFB   MOCLDY    77  75  92 SE12      29.77R
SAN ANTONIO    CLOUDY    78  73  84 SE13      29.77S
STINSON        CLOUDY    80  73  79 SE9       29.74S
PLEASANTON     NOT AVBL
LA GRANGE        N/A     74  73  96 E9        29.79F FOG
GIDDINGS       HVY RAIN  68  66  91 N13G21    29.89R
$$

EAST TEXAS

CITY           SKY/WX    TMP DP  RH WIND       PRES   REMARKS
PARIS          CLOUDY    70  59  68 S5        29.83R
CLARKSVILLE    NOT AVBL
TYLER          CLOUDY    72  66  81 SW9       29.81R
LONGVIEW       CLOUDY    72  67  84 S12       29.78F
PALESTINE      CLOUDY    71  68  90 S9        29.81S
NACOGDOCHES    CLOUDY    66  64  94 S9        29.81F
$$

TEXAS HILL COUNTRY AND EDWARDS PLATEAU

CITY           SKY/WX    TMP DP  RH WIND       PRES   REMARKS
LLANO          CLOUDY    68  66  94 SE5       29.76R
HORSESHOE BAY  TSTM      67  65  90 E6        29.75F
KERRVILLE      CLOUDY    74  69  84 SE9       29.77S
FREDERICKSBRG  CLOUDY    66  64  90 E6        29.77R
ROCKSPRINGS      N/A     73  70  88 SE10      29.78S
HONDO          CLOUDY    79  76  90 SE12      29.74F
UVALDE         CLEAR     79  74  85 SE7       29.71F
DEL RIO        CLEAR     79  72  79 E8        29.65F
$$

SOUTHEAST TEXAS

CITY           SKY/WX    TMP DP  RH WIND       PRES   REMARKS
COLLEGE STN    TSTM      71  68  90 S23G30    29.84R
CALDWELL       CLOUDY    70  70 100 SE16G43   29.82F
CROCKETT       CLOUDY    72  66  83 S10       29.82R
BRENHAM        TSTM      72  72  99 E12G18      N/A
HUNTSVILLE     TSTM      72  67  84 SE13G31   29.82S
CONROE         CLOUDY    69  68  96 CALM        N/A
HOUSTON BUSH   CLOUDY    68  67  96 SE9       29.89F
HOUSTON HOBBY  MOCLDY    73  69  87 E8        29.88F
PERLAND        LGT RAIN  75  70  84 E10       29.90F
WHARTON        CLOUDY    78  75  91 E9        29.85S
$$

THE UPPER TEXAS COAST

CITY           SKY/WX    TMP DP  RH WIND       PRES   REMARKS
ORANGE         CLOUDY    73  70  92 CALM      29.95F
PORT ARTHUR    MOCLDY    72  70  93 NE7       29.92F
GALVESTON      CLOUDY    80  77  90 SE14      29.90F THUNDER
ANGLETON       CLOUDY    80  76  87 SE10      29.86F
BAY CITY       CLOUDY    81  77  88 SE12G18   29.86F
$$

TEXAS COASTAL BEND, RIO GRANDE PLAINS DEEP SOUTH TEXAS

CITY           SKY/WX    TMP DP  RH WIND       PRES   REMARKS
VICTORIA       CLOUDY    80  76  87 SE16      29.79F
BEEVILLE       FAIR      79  78  96 SE17      29.74F
ROCKPORT       CLOUDY    82  77  84 SE15G28   29.75F
PORT ARANSAS   CLOUDY    81  79  94 SE20G30   29.74F
PORT LAVACA    CLOUDY    80  77  92 SE13G20   29.79F
CORPUS CHRISTI CLOUDY    82  77  84 S17G25    29.73F
KINGSVILLE NAS MOCLDY    81  78  91 SE14      29.71F
COTULLA        CLEAR     83  74  74 SE12      29.70F
LAREDO         CLOUDY    83  75  77 SE10      29.71F
BROWNSVILLE    CLOUDY    81  78  91 SE13      29.81F
PORT ISABEL    MOCLDY    82  78  88 SE17      29.78F
HEBBRONVILLE   MOCLDY    79  74  84 S6        29.75S
MCALLEN        CLOUDY    82  76  81 SE30G38   29.68F
WESLACO        CLOUDY    80  76  86 SE16G26   29.72F
FALFURRIAS     CLOUDY    82  74  77 S9        29.70F
EDINBURG       MOCLDY    82  76  80 SE18G26   29.70F
$$




USA.gov is the U.S. government's official web portal to all federal, state and local government web resources and services.